[[{"header":{"parameterUnit":"m.s-1","parameterCategory":1,"la1":30.2991,"la2":30.254,"lo1":-89.0895,"lo2":-89.0444,"dy":0.0017,"dx":0.0017,"nx":28,"ny":28,"refTime":"2025-09-03T09:00:00:Z","depth":0,"parameterNumber":2,"parameterNumberName":"U-component_of_WINDS"},"data":[0,0,0,0,0,0,0,0,0,0,0,0,0,0,0,0,0,0,0,0,0,0,0,0,0,0,0,0,0,0,0,0,0,0,0,0,0,0,0,0,0,0,0,0,0,0,0,0,0,0,0,0,0,0,0,0,0,0,1.6845,1.6845,0,1.684,1.684,1.684,1.6847,1.6847,1.6848,1.6848,1.6841,1.6841,1.684,0,0,0,0,0,0,0,0,0,0,0,0,0,1.686,1.686,1.6845,1.6845,1.6845,1.684,1.684,1.684,1.6847,1.6847,1.6848,1.6848,1.6841,1.6841,1.684,0,0,0,0,0,0,0,0,0,0,0,0,0,1.6854,1.686,1.6845,1.6848,1.6848,1.684,1.684,1.684,1.6847,1.6847,1.6848,1.6848,1.6841,1.6841,1.684,1.6828,0,0,1.6838,1.6838,0,0,0,0,0,0,0,0,1.6854,1.6853,1.6848,1.6848,1.6848,1.6845,1.6843,1.6836,1.6847,1.6847,1.6848,1.6848,1.6842,1.6841,1.6839,1.6828,1.6828,1.6838,1.6838,1.6838,1.6837,0,0,0,0,0,0,0,1.6855,1.6854,1.6843,1.6848,1.6848,1.6849,1.6849,1.6841,1.6842,1.6847,1.6848,1.6847,1.6842,1.684,1.6839,1.6828,1.6838,1.6838,1.6837,1.6837,1.6807,1.6807,0,0,0,0,0,0,1.6855,1.6854,1.6843,1.6843,1.6852,1.6849,1.6848,1.6845,1.6843,1.6843,1.6847,1.6848,1.6841,1.684,1.6839,1.6825,1.6838,1.6837,1.6837,1.6808,1.6807,1.6807,0,0,0,0,0,0,1.6855,1.6854,1.6843,1.6849,1.6847,1.6848,1.6845,1.6845,1.6843,1.6842,1.6842,1.6845,1.6841,1.684,1.6831,1.6825,1.6837,1.6836,1.6808,1.6807,1.6807,1.6798,0,0,0,0,0,0,1.6856,1.6854,1.685,1.6848,1.6847,1.6836,1.6844,1.6845,1.6842,1.6843,1.684,1.684,1.6841,1.6832,1.6831,1.6825,1.6836,1.6809,1.6808,1.6807,1.6799,1.6797,1.6796,0,0,0,0,0,1.6856,1.6847,1.685,1.6848,1.6842,1.6836,1.6835,1.6837,1.6841,1.6837,1.6837,1.684,1.6826,1.6831,1.683,1.6823,1.6809,1.6808,1.6807,1.68,1.6797,1.6796,0,0,0,0,0,0,1.6847,1.6847,1.685,1.684,1.6838,1.6837,1.6831,1.6834,1.6831,1.6831,1.6834,1.6833,1.6824,1.6823,1.6828,1.6812,1.6818,1.6817,1.6813,1.6811,1.681,1.681,1.6835,0,0,0,0,0,1.6844,1.6839,1.6839,1.6831,1.683,1.6831,1.6828,1.683,1.6828,1.6826,1.6825,1.6823,1.6818,1.6814,1.681,1.6799,1.6798,1.6794,1.6792,1.6791,1.679,1.6784,1.6782,1.6804,1.6804,1.6804,0,0,1.6837,1.6837,1.6834,1.6829,1.6827,1.6822,1.683,1.6824,1.682,1.6825,1.6817,1.6817,1.6814,1.6804,1.68,1.6803,1.6784,1.679,1.6789,1.6788,1.6783,1.6781,1.6779,1.6803,1.6803,1.6803,0,0,1.6823,1.6822,1.6815,1.6814,1.6812,1.6812,1.6811,1.6809,1.6809,1.6801,1.6806,1.6801,1.6792,1.679,1.6788,1.6773,1.6776,1.6772,1.6763,1.6758,1.6756,1.6755,1.675,1.6748,1.677,1.677,1.677,0,1.6815,1.6808,1.6811,1.6805,1.6803,1.6808,1.6801,1.6799,1.6795,1.6794,1.6797,1.6787,1.6785,1.6775,1.6772,1.677,1.6768,1.6772,1.6756,1.6755,1.6753,1.6749,1.6747,1.677,1.677,1.677,1.677,0,1.6798,1.6793,1.6788,1.6785,1.6782,1.6775,1.6777,1.6774,1.6776,1.6777,1.6769,1.6767,1.6762,1.676,1.6762,1.675,1.6752,1.6756,1.6762,1.6751,1.6746,1.6745,1.6769,1.6769,1.6769,1.677,0,0,1.6777,1.6777,1.6775,1.6774,1.6772,1.6768,1.6762,1.6758,1.6755,1.6752,1.6747,1.674,1.6744,1.6741,1.6743,1.6738,1.6727,1.6743,1.6742,1.674,1.6714,1.6712,1.6709,1.6729,1.6729,1.6728,1.6715,0,1.6763,1.6753,1.6756,1.6745,1.6741,1.6746,1.6741,1.6739,1.6739,1.6735,1.6735,1.673,1.6735,1.6734,1.6729,1.6729,1.6722,1.673,1.6724,1.6724,1.6724,1.6707,1.6704,1.6691,1.6713,1.6713,1.6712,0,1.6745,1.6743,1.6732,1.6732,1.673,1.6725,1.6722,1.6718,1.6716,1.6717,1.6714,1.6717,1.671,1.6717,1.6708,1.6714,1.6711,1.6711,1.6711,1.671,1.6717,1.6706,1.6687,1.6685,1.671,1.671,1.671,0,1.6732,1.6725,1.6718,1.6717,1.6717,1.6713,1.6712,1.6711,1.6709,1.6706,1.6704,1.67,1.6698,1.6695,1.6696,1.6701,1.6687,1.6694,1.6687,1.6687,1.6684,1.6684,1.6665,1.6683,1.6683,1.6683,1.6683,0,1.6715,1.6709,1.6712,1.6708,1.6701,1.6704,1.6696,1.6696,1.6695,1.6691,1.6695,1.669,1.6693,1.6688,1.6689,1.6682,1.6681,1.6681,1.6681,1.6681,1.6681,1.6679,1.668,1.6682,1.6682,1.6682,1.6682,0,1.6699,1.6701,1.6694,1.6694,1.6694,1.6688,1.6688,1.6684,1.6685,1.6679,1.6678,1.6679,1.6674,1.6676,1.667,1.6671,1.6662,1.6663,1.6663,1.6663,1.6656,1.6657,1.6635,1.6632,1.6652,1.6652,1.6652,0,1.6689,1.6684,1.6684,1.6681,1.6681,1.6676,1.6674,1.6677,1.6675,1.6672,1.6668,1.6664,1.6661,1.6653,1.6653,1.6649,1.665,1.6643,1.665,1.6649,1.665,1.6651,1.665,1.6642,1.6641,1.6641,1.6641,0,1.667,1.6671,1.6668,1.6666,1.6663,1.6661,1.6659,1.6657,1.6659,1.6656,1.6652,1.6649,1.6644,1.664,1.6636,1.6636,1.6639,1.6639,1.6637,1.6636,1.6636,1.6636,1.6659,1.6639,1.664,1.664,1.664,1.664,1.6656,1.6652,1.6652,1.6648,1.6647,1.6646,1.6642,1.6643,1.6639,1.6635,1.6637,1.6632,1.6631,1.6626,1.6625,1.6621,1.6623,1.6621,1.662,1.662,1.6619,1.6637,1.662,1.662,1.662,1.662,1.662,0,1.6638,1.6638,1.6635,1.6633,1.663,1.6634,1.6632,1.6629,1.6625,1.6623,1.662,1.6615,1.6611,1.6611,1.6607,1.6604,1.6605,1.6603,1.6603,1.6603,1.6617,1.6618,1.6602,1.6602,1.6602,1.6602,1.6602,1.6602,1.6628,1.6622,1.6623,1.6616,1.6616,1.6612,1.661,1.6609,1.6608,1.6602,1.6599,1.6599,1.6598,1.6595,1.6591,1.6591,1.6589,1.6586,1.6587,1.66,1.6602,1.6603,1.6605,1.6586,1.6586,1.6573,1.6573,1.6573]},{"header":{"parameterUnit":"m.s-1","parameterCategory":1,"la1":30.2991,"la2":30.254,"lo1":-89.0895,"lo2":-89.0444,"dy":0.0017,"dx":0.0017,"nx":28,"ny":28,"refTime":"2025-09-03T09:00:00:Z","depth":0,"parameterNumber":3,"parameterNumberName":"V-component_of_WINDS"},"data":[0,0,0,0,0,0,0,0,0,0,0,0,0,0,0,0,0,0,0,0,0,0,0,0,0,0,0,0,0,0,0,0,0,0,0,0,0,0,0,0,0,0,0,0,0,0,0,0,0,0,0,0,0,0,0,0,0,0,0.2794,0.2793,0,0.2771,0.2771,0.2771,0.2769,0.277,0.277,0.277,0.2749,0.2749,0.2748,0,0,0,0,0,0,0,0,0,0,0,0,0,0.2837,0.2836,0.2794,0.2793,0.2793,0.2772,0.2771,0.2771,0.2769,0.277,0.277,0.277,0.275,0.2749,0.2748,0,0,0,0,0,0,0,0,0,0,0,0,0,0.2817,0.2836,0.2794,0.279,0.2789,0.2772,0.2771,0.2771,0.2769,0.277,0.277,0.277,0.275,0.2749,0.2748,0.2733,0,0,0.2744,0.2744,0,0,0,0,0,0,0,0,0.2818,0.2815,0.2791,0.279,0.2789,0.2774,0.2779,0.2758,0.2769,0.2777,0.277,0.2771,0.2757,0.2756,0.2751,0.2732,0.2731,0.2744,0.2743,0.2743,0.2742,0,0,0,0,0,0,0,0.2819,0.2816,0.2785,0.279,0.2789,0.279,0.2787,0.2775,0.2765,0.2776,0.2776,0.2773,0.2757,0.2752,0.275,0.2731,0.2744,0.2743,0.2742,0.2742,0.2699,0.2699,0,0,0,0,0,0,0.2821,0.2817,0.2786,0.2784,0.2805,0.2789,0.2786,0.2778,0.2766,0.2764,0.2773,0.2773,0.2754,0.2752,0.2749,0.2731,0.2743,0.2742,0.2741,0.27,0.2699,0.2699,0,0,0,0,0,0,0.2822,0.2818,0.2787,0.2801,0.2797,0.2787,0.2779,0.2778,0.2772,0.2763,0.2762,0.2769,0.2754,0.2751,0.2737,0.2731,0.2741,0.274,0.27,0.27,0.2699,0.2695,0,0,0,0,0,0,0.2823,0.2819,0.2813,0.2801,0.2796,0.2774,0.2779,0.2777,0.277,0.277,0.2759,0.2758,0.2754,0.2739,0.2736,0.2729,0.2739,0.2701,0.27,0.2699,0.2696,0.2694,0.2693,0,0,0,0,0,0.2825,0.2813,0.2812,0.2808,0.2788,0.2774,0.2771,0.2766,0.277,0.2764,0.2758,0.2758,0.2732,0.2737,0.2734,0.2727,0.2701,0.27,0.2699,0.2696,0.2695,0.2693,0,0,0,0,0,0,0.2825,0.2811,0.281,0.2794,0.2785,0.2773,0.2766,0.2765,0.2755,0.2756,0.2751,0.2748,0.2734,0.2729,0.2736,0.2712,0.2717,0.2715,0.2716,0.2714,0.2713,0.2714,0.2738,0,0,0,0,0,0.2823,0.2812,0.2801,0.2787,0.2783,0.2775,0.2768,0.2766,0.2756,0.2753,0.2746,0.2737,0.2727,0.272,0.271,0.2695,0.2693,0.2689,0.2687,0.2686,0.2685,0.2676,0.2674,0.2696,0.2696,0.2696,0,0,0.2819,0.281,0.2803,0.2787,0.278,0.2769,0.2772,0.276,0.2752,0.2751,0.2737,0.2732,0.2722,0.2707,0.27,0.2702,0.2678,0.2685,0.2684,0.2683,0.2675,0.2673,0.2671,0.2695,0.2695,0.2695,0,0,0.2806,0.2798,0.2786,0.2778,0.2767,0.2762,0.2759,0.2747,0.2743,0.2729,0.2728,0.2719,0.2702,0.2694,0.2689,0.2673,0.2673,0.267,0.2663,0.2655,0.2653,0.2652,0.2646,0.2644,0.2669,0.2669,0.2669,0,0.2802,0.2785,0.278,0.2768,0.2761,0.2759,0.2747,0.274,0.2726,0.2721,0.2724,0.2702,0.2695,0.2679,0.2675,0.267,0.2667,0.2671,0.2654,0.2652,0.2651,0.2645,0.2643,0.2668,0.2668,0.2668,0.2668,0,0.2781,0.2769,0.2761,0.2747,0.2739,0.2727,0.272,0.2713,0.2711,0.2706,0.2692,0.2684,0.2672,0.2668,0.2666,0.2651,0.2653,0.2655,0.2659,0.2648,0.2643,0.2641,0.2668,0.2668,0.2668,0.2668,0,0,0.2767,0.275,0.2747,0.2741,0.2728,0.2719,0.2707,0.2695,0.2689,0.268,0.267,0.2655,0.2656,0.265,0.2647,0.264,0.2628,0.2643,0.2643,0.264,0.2611,0.2609,0.2606,0.2628,0.2627,0.2627,0.2611,0,0.2752,0.273,0.2725,0.2707,0.2696,0.2694,0.2684,0.2675,0.267,0.266,0.2655,0.2645,0.2648,0.2644,0.2636,0.2631,0.2622,0.2632,0.2619,0.2618,0.2621,0.2604,0.2602,0.2587,0.2609,0.2609,0.2609,0,0.2732,0.2721,0.2701,0.269,0.2685,0.2676,0.2664,0.2655,0.2645,0.2642,0.2635,0.2633,0.2621,0.2627,0.2611,0.2618,0.2612,0.2609,0.2608,0.2606,0.2612,0.2601,0.2583,0.258,0.2605,0.2605,0.2606,0,0.2723,0.2704,0.2689,0.2684,0.267,0.2664,0.2658,0.2649,0.2642,0.2632,0.2628,0.2617,0.2611,0.2603,0.2599,0.2603,0.2583,0.2588,0.258,0.258,0.2575,0.2576,0.2555,0.2573,0.2573,0.2573,0.2573,0,0.2707,0.2695,0.2685,0.2676,0.2663,0.2657,0.2644,0.2639,0.263,0.2621,0.2619,0.261,0.2605,0.2595,0.2592,0.2579,0.2577,0.2574,0.2573,0.2574,0.2574,0.257,0.2571,0.2572,0.2572,0.2572,0.2572,0,0.2694,0.2688,0.2672,0.266,0.2657,0.2647,0.2637,0.2629,0.2624,0.2612,0.2609,0.2601,0.259,0.2585,0.2571,0.2569,0.2554,0.2554,0.2557,0.2556,0.2548,0.2549,0.2524,0.2521,0.2541,0.2541,0.254,0,0.2684,0.2675,0.2662,0.2654,0.2648,0.2637,0.263,0.2625,0.2617,0.2605,0.2599,0.2587,0.2577,0.256,0.2553,0.2543,0.2543,0.2535,0.2541,0.2542,0.2542,0.2542,0.2541,0.2533,0.2533,0.2533,0.2533,0,0.2666,0.2664,0.2653,0.264,0.2632,0.2622,0.2613,0.2607,0.2601,0.2593,0.2581,0.2573,0.2559,0.2548,0.2537,0.2532,0.2531,0.2531,0.2528,0.2529,0.2531,0.2529,0.2553,0.2531,0.2532,0.2532,0.2532,0.2532,0.2655,0.2646,0.2635,0.2623,0.2615,0.2607,0.2598,0.2592,0.2581,0.2569,0.2567,0.2554,0.2545,0.253,0.2525,0.2515,0.2517,0.2513,0.2513,0.2512,0.2511,0.2532,0.2513,0.2513,0.2513,0.2513,0.2513,0,0.2636,0.2629,0.2618,0.2605,0.2596,0.2595,0.2585,0.2578,0.2566,0.2557,0.2548,0.2534,0.2523,0.2516,0.2505,0.2499,0.2498,0.2496,0.2496,0.2495,0.251,0.2513,0.2497,0.2497,0.2497,0.2497,0.2497,0.2497,0.2626,0.2611,0.2607,0.2588,0.2582,0.2568,0.2562,0.2555,0.2548,0.2532,0.2523,0.2518,0.251,0.2498,0.2489,0.2487,0.2483,0.248,0.2479,0.2493,0.2494,0.2496,0.2499,0.248,0.248,0.2465,0.2465,0.2464]}]]